Terminal Aerodrome Forecast
Issued by NWS

Current Version | Previous Version | Graphics & Text | Print | Product List | Glossary On
Versions: 1 2 3 4 5 6 7 8 9 10 11 12 13 14 15 16 17 18 19 20 21 22
065
FTUS41 KRLX 092341
TAFCKB
TAF
KCKB 092341Z 1000/1024 24009G17KT 2SM -SHSN OVC015
     FM100400 26009G16KT 4SM -SHSN OVC015
     FM100800 25009G15KT 5SM -SHSN OVC015
     FM101700 25012G18KT 6SM -SHSN BKN020=

USA.gov is the U.S. government's official web portal to all federal, state and local government web resources and services.